Regional Weather Roundup
Issued by NWS

Home | Current Version | Previous Version | Text Only | Print | Product List | Glossary On
Versions: 1 2 3 4 5 6 7 8 9 10 11 12 13 14 15 16 17 18 19 20 21 22 23 24 25 26 27 28 29 30 31 32 33 34 35 36 37 38 39 40 41 42 43 44 45 46 47 48 49 50
000
ASUS42 KTBW 101210
RWRFL
FLORIDA REGIONAL WEATHER ROUNDUP
NATIONAL WEATHER SERVICE TAMPA BAY RUSKIN FL
800 AM EDT THU JUL 10 2014

NOTE: "FAIR" INDICATES FEW OR NO CLOUDS BELOW 12,000 FEET WITH NO
SIGNIFICANT WEATHER AND/OR OBSTRUCTIONS TO VISIBILITY.


FLZ001>010-012>015-112-114-115-101300-
PANHANDLE FLORIDA

CITY           SKY/WX    TMP DP  RH WIND       PRES   REMARKS
PENSACOLA      FAIR      78  72  81 NW3       30.07R
PENSACOLA NAS  PTSUNNY   76  75  97 CALM      30.07R
MILTON NAS     PTSUNNY   75  70  84 SW3       30.08R
CRESTVIEW      FAIR      73  72  96 CALM      30.09S FOG
DUKE FIELD     PTSUNNY   76  75  98 W3        30.08R
VALPARAISO     PTSUNNY   78  73  83 CALM      30.07S
MARY ESTHER    FAIR      80  69  68 VRB2      30.06S
TRI COUNTY     PTSUNNY   72  71  97 CALM      30.09R
PANAMA CITY    FAIR      77  73  87 CALM      30.06S
TYNDALL AFB    SUNNY     77  77 100 NW2       30.09R
APALACHICOLA   FAIR      78  75  90 CALM      30.08R

STATION/POSITION SKY/WX   TEMP    WIND        PRES    WAVE   SWELL
                          AIR SEA DIR/SP/G            HT/PER HT/PER
                          (F)     (DEG/KT/KT) (MB)    (FT/S) (FT/S)
30.1N   87.6W              81 83  290/ 10/ 10 1018.1R   1/ 4
29.2N   88.2W              83 84  270/ 10/ 10 1018.8R
28.8N   86.0W              83 84  280/ 10/ 12 1019.0R   1/ 3
PANAMA CITY BEAC           80 81  280/ 12/ 15 1018.1S
CAPE SAN BLAS    NOT AVBL
TOWER C                    82     270/  7/  8 1019.0R
28.5N   84.5W              80 85   30/  2/  4 1019.1R   1/ 8

$$
FLZ011-016>038-118-127-128-134-139-239-101300-
NORTH FLORIDA

CITY           SKY/WX    TMP DP  RH WIND       PRES   REMARKS
MARIANNA       FAIR      74  73  97 CALM      30.08R
TALLAHASSEE    FAIR      75  71  87 CALM      30.09R
PERRY          FAIR     N/A N/A N/A CALM      30.10R HAZE
CROSS CITY       N/A     77  73  87 CALM      30.10R
GAINESVILLE    FAIR      76  74  93 VRB5      30.11R
MAYPORT NAS    FAIR      79  74  84 S6        30.11R
JACKSONVILLE   FAIR      77  74  90 S3        30.10R
JAX NAS        FAIR      81  74  79 S5        30.11R
JAX CRAIG      FAIR      79  75  87 SW3       30.11R
JAX CECIL      SUNNY     75  73  94 CALM      30.11R FOG
FERNANDINA BEA FAIR      81  73  78 SW5       30.09R
ST AUGUSTINE   FAIR      78  75  90 SW6       30.12R FOG

STATION/POSITION SKY/WX   TEMP    WIND        PRES    WAVE   SWELL
                          AIR SEA DIR/SP/G            HT/PER HT/PER
                          (F)     (DEG/KT/KT) (MB)    (FT/S) (FT/S)
SHELL POINT                76     310/  3/  4   N/A
KEATON BEACH               79      20/  2/  3 1019.5R
CEDAR KEY                  74      50/ 10/ 11 1020.0R
FERNANDINA                 80 84  220/  7/  9 1018.7S
30.7N   81.3W                 83                N/A     2/10
MAYPORT                    78 83  200/  5/  6   N/A
31.4N   80.9W              81 84  220/ 10/ 10 1018.9R   3/ 8   2/ 8
ST AUGUSTINE               77     240/  5/  7 1020.4R

$$
FLZ040-043>046-052-053-057-058-063-144-101300-
INTERIOR CENTRAL FLORIDA

CITY           SKY/WX    TMP DP  RH WIND       PRES   REMARKS
OCALA          PTSUNNY   75  66  73 CALM      30.12R
LEESBURG       FAIR      79  73  82 VRB3      30.12R
SANFORD        FAIR      76  75  97 CALM      30.11R
ORLANDO INTL   FAIR      76  74  93 S3        30.12R
KISSIMMEE      MOSUNNY   75  75 100 CALM      30.12R
WINTER HAVEN   FAIR      77  71  82 SE3       30.13R
BARTOW         MOSUNNY   73 N/A N/A CALM      30.13R
OKEECHOBEE     FAIR      73  73 100 MISG      30.12R FOG

$$
FLZ041-047-054-059-064-141-147-101300-
EAST CENTRAL FLORIDA

CITY           SKY/WX    TMP DP  RH WIND       PRES   REMARKS
ORMOND BEACH   SUNNY     75  72  88 SW6       30.12R
DAYTONA BEACH  FAIR      76  73  91 SW3       30.12R
DELAND           N/A    N/A N/A N/A MISG        N/A
NEW SMYRNA BEA SUNNY     75  72  88 SW5       30.11R
JFK SPACE CTR  FAIR      76  74  94 SW2       30.12R
TITUSVILLE     SUNNY     73  73 100 S6        30.12R
CAPE CANAVERAL FAIR      78  75  91 SW5       30.11R
PATRICK AFB    FAIR      79  74  86 SW7       30.11R
MELBOURNE      FAIR      77  74  90 CALM      30.11R
VERO BEACH     FAIR      75  74  96 CALM      30.11R
FT PIERCE      FAIR      76  72  87 CALM      30.11R
STUART         MOSUNNY   81  75  83 CALM      30.12R

STATION/POSITION SKY/WX   TEMP    WIND        PRES    WAVE   SWELL
                          AIR SEA DIR/SP/G            HT/PER HT/PER
                          (F)     (DEG/KT/KT) (MB)    (FT/S) (FT/S)
28.5N   80.2W              80 83  220/ 10/ 12 1019.5R
28.9N   78.5W              81 82  170/ 10/ 10 1020.5R   3/ 9   2/ 9
TRIDENT PIER               79 85  220/  6/  7 1019.1R
28.4N   80.5W                 83                N/A     2/ 8
27.6N   80.2W                 82                N/A     1/11

$$
FLZ050-056-061-142-242-148-248-149-249-151-251-155-255-
160-260-101300-
WEST CENTRAL FLORIDA

CITY           SKY/WX    TMP DP  RH WIND       PRES   REMARKS
CRYSTAL RIVER  PTSUNNY   77  72  83 CALM      30.11R THUNDER
INVERNESS      FAIR      75  70  83 S3        30.12R
BROOKSVILLE    FAIR      76  72  87 CALM      30.12R
ZEPHYRHILLS    FAIR      68  68 100 CALM      30.13R
CLEARWATER     FAIR      80  76  87 SE5       30.10R
TAMPA INTL     PTSUNNY   80  73  79 CALM      30.11R
TAMPA EXEC       N/A    N/A N/A N/A MISG        N/A
PLANT CITY     FAIR      75 N/A N/A CALM      30.13R
MACDILL AFB    FAIR      81  79  91 E2        30.11R
PETER O KNIGHT FAIR      81  73  78 CALM      30.11R
ST PETERSBURG  LGT RAIN  81  76  84 S5        30.09R
SARASOTA       FAIR      82  73  74 E5        30.09R
VENICE         FAIR      77  75  94 E6        30.12R

STATION/POSITION SKY/WX   TEMP    WIND        PRES    WAVE   SWELL
                          AIR SEA DIR/SP/G            HT/PER HT/PER
                          (F)     (DEG/KT/KT) (MB)    (FT/S) (FT/S)
CEDAR KEY                  74      50/ 10/ 11 1020.0R
28.5N   84.5W              80 85   30/  2/  4 1019.1R   1/ 8
27.3N   84.3W                 84                N/A     1/ 6
CLEARWATER BEACH           79 87  120/  3/  5 1018.9R
MIDDLE TAMPA BAY           83     160/  4/  5 1019.3R
VENICE                     78 87   80/  4/  5 1019.2R

$$
FLZ066-069-070-075>078-162-262-165-265-101300-
SOUTHWEST FLORIDA AND KEYS

CITY           SKY/WX    TMP DP  RH WIND       PRES   REMARKS
PUNTA GORDA    FAIR      77  73  87 SE5       30.13R
FT MYERS       FAIR      77  73  87 CALM      30.11R
SOUTHWEST INTL FAIR      75  72  90 SE3       30.11R
NAPLES         PTSUNNY   78  76  93 CALM      30.10R
MARATHON       MOSUNNY   85  76  74 E6        30.09R
KEY WEST NAS   MOSUNNY   84  75  74 E10       30.09R
KEY WEST INTL  MOSUNNY   85  75  72 SE10      30.09R

STATION/POSITION SKY/WX   TEMP    WIND        PRES    WAVE   SWELL
                          AIR SEA DIR/SP/G            HT/PER HT/PER
                          (F)     (DEG/KT/KT) (MB)    (FT/S) (FT/S)
VENICE                     78 87   80/  4/  5 1019.2R
NAPLES                     77     120/  3/  4 1020.0R
DRY TORTUGAS               84     130/ 12/ 13 1018.7R
NW FL BAY                  84     110/ 10/ 11 1018.6R
SAND KEY                   83     110/  9/ 11 1018.8R
SOMBRERO KEY               84     100/ 10/ 11 1019.7R
LONG KEY                   84 87  110/  6/  8 1019.9R
MOLASSES REEF              83 85  150/ 11/ 12 1019.1R

$$
FLZ067-068-071>074-168-172>174-101300-
SOUTHEAST FLORIDA

CITY           SKY/WX    TMP DP  RH WIND       PRES   REMARKS
W PALM BEACH   PTSUNNY   78  75  90 CALM      30.10R
FT LAUDER-EXEC FAIR      77  76  96 CALM      30.10R
FT LAUDERDALE  FAIR      80  76  87 NW3       30.10R
POMPANO BEACH  FAIR      76  76 100 CALM      30.11R
PEMBROKE PINES FAIR      78  77  96 CALM      30.12R
OPA LOCKA      PTSUNNY   79  76  90 N3        30.11R
MIAMI          FAIR      81  75  82 CALM      30.11R
WEST KENDALL   FAIR      78  75  90 CALM      30.10R
HOMESTEAD      MOSUNNY   78  59  51 N2        30.10R

STATION/POSITION SKY/WX   TEMP    WIND        PRES    WAVE   SWELL
                          AIR SEA DIR/SP/G            HT/PER HT/PER
                          (F)     (DEG/KT/KT) (MB)    (FT/S) (FT/S)
PORT EVERGLADES            83     140/  7/  9 1019.4
VIRGINIA KEY               81 84  120/ 12/ 17   N/A
LAKE WORTH                 80 83              1019.1R
FOWEY ROCKS                83 84  120/  8/  9 1019.5R
SETTLEMENT POINT           81     130/  7/  8 1020.5R

$$



USA.gov is the U.S. government's official web portal to all federal, state and local government web resources and services.